AAL1211 KPHL-KPWM

Flight info

Callsign AAL1211
Flight time 0h 58m
Altitude 35000
Route DITCH T416 JIMEE WAVEY SHIPP CCC SCOGS3
Aircraft B738/M-SDE2E3FGHIRWXY/LB1

Departure

Time 2026-04-14 21:14
Airport Philadelphia International Airport (KPHL)

Arrival

Time 2026-04-14 22:12
Airport Portland International Jetport (KPWM)
Time Latitude Longitude Altitude Speed Heading
2026-04-14 20:55 39.87478 -75.24318 18 ft 0 kts 279°
2026-04-14 21:04 39.87478 -75.24317 18 ft 1 kts 279°
2026-04-14 21:04 39.87476 -75.24298 18 ft 2 kts 279°
2026-04-14 21:04 39.87474 -75.24286 18 ft 2 kts 271°
2026-04-14 21:04 39.87479 -75.24268 18 ft 2 kts 227°
2026-04-14 21:05 39.87492 -75.24258 18 ft 2 kts 189°
2026-04-14 21:05 39.87501 -75.24258 18 ft 1 kts 167°
2026-04-14 21:05 39.87508 -75.24261 18 ft 0 kts 165°
2026-04-14 21:05 39.87508 -75.24260 18 ft 0 kts 165°
2026-04-14 21:08 39.87496 -75.24256 18 ft 5 kts 166°
2026-04-14 21:08 39.87449 -75.24242 18 ft 6 kts 171°
2026-04-14 21:09 39.87407 -75.24235 18 ft 5 kts 173°
2026-04-14 21:09 39.87372 -75.24229 18 ft 4 kts 173°
2026-04-14 21:09 39.87322 -75.24213 18 ft 11 kts 159°
2026-04-14 21:09 39.87256 -75.24171 18 ft 9 kts 151°
2026-04-14 21:10 39.87199 -75.24130 18 ft 8 kts 151°
2026-04-14 21:10 39.87124 -75.24093 18 ft 13 kts 165°
2026-04-14 21:10 39.87035 -75.24062 18 ft 12 kts 166°
2026-04-14 21:10 39.86952 -75.24036 18 ft 10 kts 166°
2026-04-14 21:11 39.86906 -75.23988 18 ft 9 kts 100°
2026-04-14 21:11 39.86921 -75.23887 18 ft 13 kts 76°
2026-04-14 21:11 39.86948 -75.23753 18 ft 16 kts 75°
2026-04-14 21:11 39.86975 -75.23614 18 ft 15 kts 76°
2026-04-14 21:12 39.87002 -75.23486 18 ft 10 kts 73°
2026-04-14 21:12 39.86995 -75.23439 18 ft 4 kts 134°
2026-04-14 21:12 39.86959 -75.23417 18 ft 5 kts 163°
2026-04-14 21:12 39.86916 -75.23415 18 ft 6 kts 209°
2026-04-14 21:13 39.86893 -75.23460 18 ft 6 kts 253°
2026-04-14 21:13 39.86864 -75.23609 18 ft 35 kts 257°
2026-04-14 21:13 39.86744 -75.24213 21 ft 100 kts 255°
2026-04-14 21:14 39.86248 -75.26769 430 ft 166 kts 254°
2026-04-14 21:14 39.85972 -75.28155 1180 ft 162 kts 248°
2026-04-14 21:14 39.85363 -75.29406 1795 ft 167 kts 225°
2026-04-14 21:14 39.84358 -75.30119 2413 ft 177 kts 197°
2026-04-14 21:15 39.83053 -75.29949 2863 ft 203 kts 166°
2026-04-14 21:15 39.81726 -75.29113 3278 ft 229 kts 149°
2026-04-14 21:15 39.80722 -75.27376 3755 ft 258 kts 112°
2026-04-14 21:15 39.80548 -75.24985 4333 ft 273 kts 86°
2026-04-14 21:16 39.80748 -75.22543 5020 ft 280 kts 84°
2026-04-14 21:16 39.80875 -75.20012 5739 ft 285 kts 89°
2026-04-14 21:16 39.80871 -75.17426 6459 ft 289 kts 91°
2026-04-14 21:16 39.80799 -75.14812 7260 ft 290 kts 92°
2026-04-14 21:17 39.80707 -75.12216 8002 ft 294 kts 92°
2026-04-14 21:17 39.80612 -75.09527 8680 ft 302 kts 91°
2026-04-14 21:17 39.80521 -75.06751 9227 ft 315 kts 91°
2026-04-14 21:17 39.80431 -75.03886 9935 ft 322 kts 91°
2026-04-14 21:18 39.80341 -75.00985 10596 ft 331 kts 91°
2026-04-14 21:18 39.80248 -74.97937 10990 ft 347 kts 91°
2026-04-14 21:18 39.80149 -74.94740 11429 ft 363 kts 91°
2026-04-14 21:18 39.80044 -74.91419 11885 ft 378 kts 91°
2026-04-14 21:19 39.79931 -74.87925 12352 ft 392 kts 91°
2026-04-14 21:19 39.79814 -74.84323 12861 ft 405 kts 91°
2026-04-14 21:19 39.79693 -74.80658 13643 ft 410 kts 91°
2026-04-14 21:19 39.79571 -74.76997 14472 ft 413 kts 91°
2026-04-14 21:20 39.79462 -74.73239 15231 ft 416 kts 90°
2026-04-14 21:20 39.79496 -74.69489 16077 ft 419 kts 85°
2026-04-14 21:20 39.79709 -74.65733 16746 ft 423 kts 83°
2026-04-14 21:20 39.80022 -74.61964 17460 ft 427 kts 82°
2026-04-14 21:21 39.80382 -74.58118 18162 ft 432 kts 81°
2026-04-14 21:21 39.80749 -74.54243 18808 ft 436 kts 81°
2026-04-14 21:21 39.81112 -74.50314 19427 ft 441 kts 82°
2026-04-14 21:21 39.81462 -74.46341 20020 ft 447 kts 82°
2026-04-14 21:22 39.81777 -74.42310 20677 ft 450 kts 84°
2026-04-14 21:22 39.81932 -74.38224 21239 ft 455 kts 87°
2026-04-14 21:22 39.81964 -74.34135 21829 ft 460 kts 89°
2026-04-14 21:22 39.81936 -74.29962 22404 ft 465 kts 90°
2026-04-14 21:23 39.81887 -74.25787 22898 ft 469 kts 90°
2026-04-14 21:23 39.81856 -74.21526 23452 ft 473 kts 88°
2026-04-14 21:23 39.82085 -74.17250 23926 ft 476 kts 80°
2026-04-14 21:23 39.82801 -74.13070 24452 ft 475 kts 70°
2026-04-14 21:24 39.83989 -74.09106 24896 ft 476 kts 61°
2026-04-14 21:24 39.85650 -74.05378 25358 ft 475 kts 52°
2026-04-14 21:24 39.87626 -74.01974 25834 ft 475 kts 47°
2026-04-14 21:24 39.89764 -73.98676 26221 ft 479 kts 45°
2026-04-14 21:25 39.91947 -73.95383 26667 ft 482 kts 45°
2026-04-14 21:25 39.94122 -73.92028 27106 ft 486 kts 46°
2026-04-14 21:25 39.96242 -73.88627 27602 ft 488 kts 47°
2026-04-14 21:25 39.98335 -73.85137 27927 ft 494 kts 49°
2026-04-14 21:26 40.00409 -73.81558 28402 ft 495 kts 49°
2026-04-14 21:26 40.02448 -73.77952 28855 ft 497 kts 50°
2026-04-14 21:26 40.04476 -73.74302 29411 ft 496 kts 50°
2026-04-14 21:26 40.06450 -73.70713 29991 ft 494 kts 50°
2026-04-14 21:27 40.08455 -73.67046 30558 ft 493 kts 50°
2026-04-14 21:27 40.10425 -73.63435 31028 ft 493 kts 50°
2026-04-14 21:27 40.12433 -73.59750 31505 ft 493 kts 50°
2026-04-14 21:27 40.14404 -73.56130 32077 ft 490 kts 50°
2026-04-14 21:28 40.16363 -73.52530 32552 ft 489 kts 50°
2026-04-14 21:28 40.18330 -73.48914 33030 ft 488 kts 49°
2026-04-14 21:28 40.20288 -73.45315 33437 ft 488 kts 49°
2026-04-14 21:28 40.22252 -73.41704 33887 ft 487 kts 49°
2026-04-14 21:29 40.24229 -73.38094 34376 ft 485 kts 48°
2026-04-14 21:29 40.26278 -73.34631 34893 ft 480 kts 46°
2026-04-14 21:29 40.30600 -73.28025 34951 ft 475 kts 40°
2026-04-14 21:30 40.35688 -73.22778 34955 ft 463 kts 27°
2026-04-14 21:30 40.41165 -73.18472 34949 ft 462 kts 24°
2026-04-14 21:31 40.46765 -73.14355 34948 ft 462 kts 22°
2026-04-14 21:31 40.52350 -73.10275 34949 ft 461 kts 23°
2026-04-14 21:32 40.57949 -73.06154 34946 ft 461 kts 23°
2026-04-14 21:32 40.63523 -73.02016 34949 ft 460 kts 23°
2026-04-14 21:33 40.69100 -72.97855 34949 ft 461 kts 23°
2026-04-14 21:33 40.74683 -72.93676 34952 ft 462 kts 23°
2026-04-14 21:34 40.80244 -72.89500 34947 ft 461 kts 23°
2026-04-14 21:34 40.85799 -72.85320 34949 ft 460 kts 23°
2026-04-14 21:35 40.91283 -72.81046 34949 ft 464 kts 27°
2026-04-14 21:35 40.96428 -72.75817 34945 ft 470 kts 35°
2026-04-14 21:36 41.01241 -72.69961 34941 ft 473 kts 38°
2026-04-14 21:36 41.05976 -72.63946 34946 ft 472 kts 38°
2026-04-14 21:37 41.10717 -72.57916 34935 ft 473 kts 38°
2026-04-14 21:37 41.15436 -72.51942 34938 ft 471 kts 37°
2026-04-14 21:38 41.20212 -72.45928 34937 ft 474 kts 37°
2026-04-14 21:38 41.24963 -72.39944 34932 ft 473 kts 37°
2026-04-14 21:39 41.29711 -72.33958 34931 ft 473 kts 38°
2026-04-14 21:39 41.34479 -72.27940 34927 ft 474 kts 38°
2026-04-14 21:40 41.39246 -72.21911 34925 ft 473 kts 38°
2026-04-14 21:40 41.44015 -72.15865 34923 ft 474 kts 38°
2026-04-14 21:41 41.48774 -72.09818 34926 ft 474 kts 38°
2026-04-14 21:41 41.53525 -72.03772 34927 ft 474 kts 38°
2026-04-14 21:42 41.58291 -71.97689 34927 ft 475 kts 38°
2026-04-14 21:42 41.63065 -71.91585 34923 ft 474 kts 38°
2026-04-14 21:43 41.67815 -71.85499 34919 ft 476 kts 38°
2026-04-14 21:43 41.72542 -71.79427 34923 ft 474 kts 37°
2026-04-14 21:44 41.77291 -71.73315 34917 ft 476 kts 37°
2026-04-14 21:44 41.82014 -71.67069 34920 ft 478 kts 41°
2026-04-14 21:45 41.85973 -71.59834 34914 ft 487 kts 54°
2026-04-14 21:45 41.89133 -71.51746 34909 ft 492 kts 59°
2026-04-14 21:46 41.92015 -71.43506 34907 ft 491 kts 60°
2026-04-14 21:46 41.94886 -71.35190 34903 ft 491 kts 60°
2026-04-14 21:47 41.97785 -71.26887 34910 ft 491 kts 60°
2026-04-14 21:47 42.00691 -71.18645 34908 ft 489 kts 60°
2026-04-14 21:48 42.03620 -71.10376 34907 ft 490 kts 60°
2026-04-14 21:48 42.06560 -71.02179 34888 ft 489 kts 58°
2026-04-14 21:49 42.08258 -70.98283 34478 ft 481 kts 50°
2026-04-14 21:49 42.10394 -70.94951 33918 ft 465 kts 36°
2026-04-14 21:49 42.12943 -70.92362 33263 ft 454 kts 24°
2026-04-14 21:49 42.15715 -70.90455 32550 ft 447 kts 16°
2026-04-14 21:50 42.18566 -70.88912 32036 ft 440 kts 14°
2026-04-14 21:50 42.21413 -70.87518 31490 ft 436 kts 12°
2026-04-14 21:50 42.24269 -70.86186 30934 ft 432 kts 12°
2026-04-14 21:50 42.27103 -70.84892 30364 ft 430 kts 12°
2026-04-14 21:51 42.29908 -70.83615 29805 ft 427 kts 12°
2026-04-14 21:51 42.32711 -70.82336 29252 ft 425 kts 12°
2026-04-14 21:51 42.35522 -70.81045 28684 ft 423 kts 12°
2026-04-14 21:51 42.38288 -70.79767 28119 ft 421 kts 12°
2026-04-14 21:52 42.41039 -70.78487 27565 ft 419 kts 12°
2026-04-14 21:52 42.43769 -70.77209 27007 ft 418 kts 13°
2026-04-14 21:52 42.46514 -70.75839 26443 ft 417 kts 15°
2026-04-14 21:52 42.49180 -70.74406 25886 ft 416 kts 16°
2026-04-14 21:53 42.51830 -70.72933 25334 ft 414 kts 17°
2026-04-14 21:53 42.54505 -70.71429 24771 ft 412 kts 17°
2026-04-14 21:53 42.57114 -70.69961 24219 ft 410 kts 17°
2026-04-14 21:53 42.59743 -70.68487 23667 ft 408 kts 17°
2026-04-14 21:54 42.62362 -70.67024 23119 ft 406 kts 17°
2026-04-14 21:54 42.64953 -70.65580 22578 ft 405 kts 16°
2026-04-14 21:54 42.67561 -70.64133 22029 ft 404 kts 17°
2026-04-14 21:54 42.70124 -70.62650 21484 ft 403 kts 18°
2026-04-14 21:55 42.72669 -70.61083 20930 ft 402 kts 19°
2026-04-14 21:55 42.75176 -70.59491 20384 ft 401 kts 20°
2026-04-14 21:55 42.77710 -70.57866 19821 ft 400 kts 20°
2026-04-14 21:55 42.80212 -70.56260 19248 ft 398 kts 20°
2026-04-14 21:56 42.82697 -70.54670 18716 ft 396 kts 20°
2026-04-14 21:56 42.85181 -70.53084 18156 ft 394 kts 20°
2026-04-14 21:56 42.87637 -70.51520 17630 ft 391 kts 19°
2026-04-14 21:56 42.90085 -70.49963 17117 ft 388 kts 19°
2026-04-14 21:57 42.92530 -70.48412 16555 ft 386 kts 19°
2026-04-14 21:57 42.94945 -70.46883 16026 ft 384 kts 18°
2026-04-14 21:57 42.97343 -70.45363 15486 ft 382 kts 18°
2026-04-14 21:57 42.99754 -70.43833 14941 ft 380 kts 18°
2026-04-14 21:58 43.02137 -70.42293 14391 ft 379 kts 20°
2026-04-14 21:58 43.04424 -70.40572 13844 ft 380 kts 24°
2026-04-14 21:58 43.06661 -70.38670 13309 ft 380 kts 26°
2026-04-14 21:58 43.08885 -70.36680 12732 ft 378 kts 26°
2026-04-14 21:59 43.11052 -70.34722 12204 ft 376 kts 27°
2026-04-14 21:59 43.13243 -70.32755 11662 ft 373 kts 27°
2026-04-14 21:59 43.15383 -70.30856 11131 ft 371 kts 27°
2026-04-14 21:59 43.17525 -70.28966 10941 ft 358 kts 26°
2026-04-14 22:00 43.19570 -70.27155 10963 ft 344 kts 26°
2026-04-14 22:00 43.21619 -70.25534 10887 ft 342 kts 18°
2026-04-14 22:00 43.23842 -70.24618 10636 ft 324 kts 356°
2026-04-14 22:00 43.25976 -70.24944 10396 ft 300 kts 334°
2026-04-14 22:01 43.27766 -70.26169 10259 ft 276 kts 318°
2026-04-14 22:01 43.29205 -70.27747 10181 ft 259 kts 312°
2026-04-14 22:01 43.30515 -70.29355 10066 ft 246 kts 310°
2026-04-14 22:01 43.31753 -70.30917 9824 ft 240 kts 310°
2026-04-14 22:02 43.32980 -70.32474 9499 ft 238 kts 310°
2026-04-14 22:02 43.34187 -70.33998 9191 ft 236 kts 310°
2026-04-14 22:02 43.35393 -70.35528 8945 ft 234 kts 309°
2026-04-14 22:02 43.36565 -70.37134 8928 ft 246 kts 307°
2026-04-14 22:03 43.37770 -70.38847 8939 ft 248 kts 307°
2026-04-14 22:03 43.38973 -70.40556 8934 ft 249 kts 308°
2026-04-14 22:03 43.40170 -70.42237 8887 ft 243 kts 308°
2026-04-14 22:03 43.41351 -70.43887 8657 ft 237 kts 307°
2026-04-14 22:04 43.42487 -70.45480 8379 ft 233 kts 307°
2026-04-14 22:04 43.43604 -70.47053 8100 ft 231 kts 307°
2026-04-14 22:04 43.44756 -70.48687 7783 ft 246 kts 307°
2026-04-14 22:04 43.45953 -70.50384 7457 ft 249 kts 308°
2026-04-14 22:05 43.47172 -70.52092 7142 ft 247 kts 307°
2026-04-14 22:05 43.48353 -70.53746 6822 ft 244 kts 307°
2026-04-14 22:05 43.49543 -70.55419 6515 ft 242 kts 307°
2026-04-14 22:05 43.50709 -70.57064 6210 ft 240 kts 307°
2026-04-14 22:06 43.51864 -70.58696 5894 ft 238 kts 307°
2026-04-14 22:06 43.53006 -70.60313 5603 ft 236 kts 307°
2026-04-14 22:06 43.54154 -70.61937 5307 ft 235 kts 308°
2026-04-14 22:06 43.55405 -70.63420 5002 ft 250 kts 322°
2026-04-14 22:07 43.57114 -70.64195 4674 ft 274 kts 353°
2026-04-14 22:07 43.59046 -70.63889 4343 ft 280 kts 10°
2026-04-14 22:07 43.60902 -70.63206 4163 ft 273 kts 15°
2026-04-14 22:07 43.62597 -70.62116 4003 ft 268 kts 33°
2026-04-14 22:08 43.63958 -70.60400 3807 ft 262 kts 56°
2026-04-14 22:08 43.64804 -70.58224 3512 ft 260 kts 70°
2026-04-14 22:08 43.65461 -70.55927 3247 ft 257 kts 72°
2026-04-14 22:08 43.65929 -70.53571 2991 ft 250 kts 87°
2026-04-14 22:09 43.65951 -70.51232 2664 ft 246 kts 99°
2026-04-14 22:09 43.65769 -70.48866 2337 ft 244 kts 102°
2026-04-14 22:09 43.65553 -70.46594 2144 ft 233 kts 103°
2026-04-14 22:09 43.65353 -70.44428 1794 ft 221 kts 101°
2026-04-14 22:10 43.65248 -70.42409 1503 ft 204 kts 99°
2026-04-14 22:10 43.65129 -70.40540 1233 ft 188 kts 101°
2026-04-14 22:10 43.64993 -70.38814 1001 ft 172 kts 98°
2026-04-14 22:10 43.64909 -70.37269 787 ft 156 kts 98°
2026-04-14 22:11 43.64798 -70.35836 547 ft 145 kts 99°
2026-04-14 22:11 43.64715 -70.34441 364 ft 148 kts 96°
2026-04-14 22:11 43.64616 -70.33032 169 ft 145 kts 97°
2026-04-14 22:11 43.64521 -70.31686 68 ft 124 kts 95°
2026-04-14 22:12 43.64468 -70.30868 58 ft 52 kts 96°
2026-04-14 22:12 43.64445 -70.30532 48 ft 29 kts 95°
2026-04-14 22:12 43.64424 -70.30248 41 ft 30 kts 96°
2026-04-14 22:12 43.64408 -70.29993 33 ft 15 kts 95°
2026-04-14 22:13 43.64450 -70.29913 30 ft 12 kts
2026-04-14 22:13 43.64539 -70.29919 28 ft 13 kts 346°
2026-04-14 22:13 43.64572 -70.30009 31 ft 9 kts 276°
2026-04-14 22:13 43.64580 -70.30124 34 ft 14 kts 275°
2026-04-14 22:14 43.64588 -70.30249 38 ft 11 kts 275°
2026-04-14 22:14 43.64578 -70.30338 42 ft 8 kts 252°
2026-04-14 22:14 43.64559 -70.30426 45 ft 10 kts 256°
2026-04-14 22:14 43.64556 -70.30505 47 ft 7 kts 274°
2026-04-14 22:15 43.64562 -70.30592 49 ft 11 kts 276°
2026-04-14 22:15 43.64572 -70.30732 53 ft 15 kts 276°
2026-04-14 22:15 43.64581 -70.30863 58 ft 11 kts 275°
2026-04-14 22:15 43.64587 -70.30968 60 ft 10 kts 276°
2026-04-14 22:16 43.64595 -70.31084 62 ft 13 kts 276°
2026-04-14 22:16 43.64602 -70.31203 65 ft 11 kts 275°
2026-04-14 22:16 43.64634 -70.31287 66 ft 9 kts 316°
2026-04-14 22:16 43.64677 -70.31338 67 ft 7 kts 321°
2026-04-14 22:17 43.64711 -70.31372 68 ft 4 kts 341°
2026-04-14 22:17 43.64738 -70.31364 69 ft 3 kts 33°
2026-04-14 22:17 43.64751 -70.31348 69 ft 1 kts 45°
2026-04-14 22:17 43.64757 -70.31338 69 ft 1 kts 49°
2026-04-14 22:18 43.64761 -70.31332 69 ft 0 kts 49°
2026-04-14 22:18 43.64761 -70.31331 69 ft 0 kts 49°